DateTimeUTC,F1_A11,F1_S11,BsB_S11,BsG_S11,BsR_S11,BbsB_S11,BbsG_S11,BbsR_S11,BaB_A11,BaG_A11,BaR_A11,Tu_S11,T_S11,Uu_S11,U_S11,P_S11,T1_A11
2021-04-27T22:00:00Z,00040200,20000000,,,,,,,-000.12,-000.12,-000.20,20.2,27.3,03.2,02.1,0683.9,31.3
2021-04-27T22:01:00Z,00040200,20000000,,,,,,,0000.05,0000.13,0000.21,20.2,27.3,03.2,02.1,0683.9,31.3
2021-04-27T22:02:00Z,00040200,20000000,,,,,,,-000.19,-000.28,-000.22,20.2,27.3,03.0,01.9,0683.9,31.3
2021-04-27T22:03:00Z,00040200,60000000,,,,,,,0000.17,0000.31,0000.12,20.2,27.3,02.9,01.9,0683.9,31.3
2021-04-27T22:04:00Z,00040200,40000000,0000.10,-000.05,-000.06,0000.43,-000.12,0000.13,-000.09,0000.05,0000.20,20.3,27.1,03.1,02.0,0684.8,31.3
2021-04-27T22:05:00Z,00040200,00000000,0000.05,0000.05,0000.11,-000.05,-000.09,0000.11,0000.02,0000.13,-000.15,20.4,27.1,03.0,02.0,0684.9,31.3
2021-04-27T22:06:00Z,00040200,00000000,-000.18,0000.20,-000.20,0000.47,0000.22,0000.23,0000.24,-000.14,0000.09,20.4,27.1,03.1,02.1,0684.9,31.3
2021-04-27T22:07:00Z,00040200,00000000,-000.58,0000.07,-000.03,0000.04,0000.15,-000.01,-000.04,-000.03,0000.14,20.4,27.1,03.1,02.1,0684.9,31.3
2021-04-27T22:08:00Z,00040200,00000000,-000.57,-000.04,0000.08,0000.18,0000.14,0000.08,-000.84,-000.52,-000.86,20.3,27.0,03.0,02.0,0684.9,31.3
2021-04-27T22:09:00Z,00040200,00000000,0000.47,-000.03,-000.11,-000.02,-000.14,-000.24,-000.07,-000.17,0000.17,20.4,27.0,02.9,01.9,0684.9,31.3
2021-04-27T22:10:00Z,00040200,00000000,-000.16,0000.08,-000.33,-000.45,0000.03,-000.08,-000.13,-000.22,-000.13,20.3,27.0,02.7,01.8,0684.9,31.3
2021-04-27T22:11:00Z,00040200,00000000,0000.14,0000.07,-000.31,0000.26,-000.06,0000.09,0000.32,0000.13,-000.04,20.3,27.0,02.8,01.9,0684.9,31.3
2021-04-27T22:12:00Z,00040200,00000000,0000.37,0000.04,-000.49,0000.25,0000.13,-000.15,0000.34,0000.46,0000.28,20.3,27.0,02.8,01.8,0684.9,31.3
2021-04-27T22:13:00Z,00040200,00000000,0000.33,0000.13,-000.19,0000.15,-000.04,-000.40,-000.67,-000.67,-000.42,20.3,27.0,02.8,01.9,0684.9,31.3
2021-04-27T22:14:00Z,00040200,00000000,-000.25,-000.18,-000.43,0000.24,-000.14,0000.16,0000.33,-000.09,-000.07,20.3,27.0,02.7,01.8,0684.9,31.3
2021-04-27T22:15:00Z,00040200,00000000,0000.04,0000.03,0000.15,-000.07,0000.17,0000.17,-000.50,0000.29,-000.00,20.3,27.0,02.7,01.8,0684.9,31.3
2021-04-27T22:16:00Z,00040200,00000000,-000.24,0000.01,-000.18,0000.48,0000.02,-000.13,-000.10,-000.17,0000.15,20.3,27.0,02.6,01.7,0684.9,31.4
2021-04-27T22:17:00Z,00040200,00000000,0000.18,0000.12,-000.17,0000.43,0000.28,0000.07,0000.04,0000.12,-000.18,20.3,27.0,02.6,01.7,0684.9,31.4
2021-04-27T22:18:00Z,00040200,00000000,-000.15,-000.22,-000.03,0000.44,-000.08,0000.11,0000.26,-000.04,-000.23,20.3,26.9,02.6,01.7,0684.9,31.3
2021-04-27T22:19:00Z,00040200,00000000,0000.12,-000.05,-000.13,-000.33,0000.18,0000.40,-000.29,-000.63,0000.12,20.3,26.9,02.5,01.7,0684.9,31.3
2021-04-27T22:20:00Z,00040200,00000000,-000.04,0000.04,-000.00,0000.30,-000.13,-000.15,-000.46,-000.01,-000.42,20.3,26.9,02.3,01.6,0684.9,31.3
2021-04-27T22:21:00Z,00040200,00000000,-000.04,0000.36,0000.04,0000.18,-000.12,0000.02,-000.01,-000.23,-000.28,20.3,26.9,02.3,01.5,0684.9,31.3
2021-04-27T22:22:00Z,00040200,00000000,-000.36,-000.08,-000.09,0000.24,-000.07,-000.10,-000.58,-000.09,0000.12,20.3,26.9,02.1,01.4,0684.9,31.3
2021-04-27T22:23:00Z,00040200,01000000,0000.07,-000.06,-000.23,-000.12,0000.10,0000.28,0000.33,0000.13,0000.26,20.3,26.9,02.0,01.3,0684.9,31.3
2021-04-27T22:24:00Z,00040200,00000000,0000.42,0000.13,0000.22,0000.82,-000.15,0000.02,-000.03,-000.08,-000.33,20.3,26.9,02.1,01.4,0684.9,31.3
2021-04-27T22:25:00Z,00040200,00000000,-000.01,0000.10,0000.39,0000.51,0000.28,0000.04,0000.24,0000.48,0000.06,20.2,26.9,02.0,01.4,0684.9,31.3
2021-04-27T22:26:00Z,00040200,00000000,-000.78,0000.13,0000.04,0000.06,-000.04,-000.13,0000.08,-000.22,0000.10,20.2,26.9,02.1,01.4,0684.9,31.3
2021-04-27T22:27:00Z,00040200,00000000,0000.40,0000.10,0000.05,0000.37,0000.09,0000.09,0000.10,0000.12,-000.05,20.2,26.9,02.1,01.4,0684.9,31.3
2021-04-27T22:28:00Z,00040200,00000000,-000.25,0000.03,-000.13,0000.16,-000.02,0000.05,-000.17,-000.45,-000.10,20.2,26.9,02.1,01.4,0684.9,31.3
2021-04-27T22:29:00Z,00040200,00000000,-000.10,0000.22,0000.06,-000.31,-000.01,0000.37,0000.10,0000.34,0000.14,20.2,26.9,02.1,01.4,0684.9,31.3
2021-04-27T22:30:00Z,00040200,01000000,-000.80,0000.07,-000.10,-000.63,0000.10,0000.07,-000.18,-000.13,-000.11,20.2,26.9,02.0,01.4,0684.9,31.3
2021-04-27T22:31:00Z,00040200,00000000,0000.49,-000.01,0000.08,0000.30,0000.33,0000.02,0000.23,-000.27,0000.18,20.2,26.9,01.9,01.3,0684.9,31.3
2021-04-27T22:32:00Z,00040200,00000000,-000.28,0000.22,0000.23,-000.14,-000.07,0000.01,-000.31,0000.35,-000.12,20.2,26.9,01.9,01.3,0684.9,31.3
2021-04-27T22:33:00Z,00040200,00000000,0000.56,0000.22,-000.25,0000.06,0000.10,-000.06,-000.30,-000.48,-000.10,20.2,26.8,01.9,01.3,0684.9,31.3
2021-04-27T22:34:00Z,00040200,01000000,0000.86,0000.38,0000.15,-000.10,-000.12,0000.09,-000.27,-000.51,-000.45,20.2,26.8,01.8,01.2,0684.9,31.3
2021-04-27T22:35:00Z,00040200,01000000,0000.06,0000.12,-000.33,-000.18,-000.11,-000.25,0000.07,0000.18,0000.29,20.2,26.8,01.7,01.2,0684.9,31.3
2021-04-27T22:36:00Z,00040200,01000000,0000.46,-000.03,-000.18,0000.20,-000.06,0000.03,0000.05,0000.06,-000.41,20.1,26.8,01.7,01.1,0684.9,31.3
2021-04-27T22:37:00Z,00040200,01000000,-000.25,0000.03,-000.07,0000.43,0000.13,-000.27,0000.15,0000.08,0000.02,20.2,26.8,01.8,01.2,0684.9,31.3
2021-04-27T22:38:00Z,00040200,01000000,0000.20,0000.06,0000.09,0000.39,0000.04,0000.22,-000.23,-000.14,-000.08,20.1,26.8,01.8,01.2,0684.9,31.3
2021-04-27T22:39:00Z,00040200,01000000,0000.12,-000.05,-000.01,-000.09,0000.10,-000.21,0000.23,0000.30,0000.08,20.1,26.8,01.6,01.1,0684.9,31.3
2021-04-27T22:40:00Z,00040200,01000000,0000.15,-000.08,0000.09,0000.06,-000.02,0000.24,0000.01,-000.03,0000.20,20.1,26.8,01.7,01.1,0684.9,31.3
2021-04-27T22:41:00Z,00040200,01000000,-000.05,0000.28,-000.27,0000.64,0000.03,-000.10,-000.03,-000.11,-000.06,20.1,26.8,01.6,01.1,0684.8,31.3
2021-04-27T22:42:00Z,00040200,01000000,0000.01,0000.01,-000.26,0000.37,-000.12,0000.03,-000.34,-000.23,-000.42,20.1,26.8,01.7,01.1,0684.8,31.3
2021-04-27T22:43:00Z,00040200,01000000,-000.35,-000.06,-000.00,-000.29,0000.07,-000.15,0000.27,-000.04,0000.13,20.1,26.8,01.6,01.1,0684.8,31.3
2021-04-27T22:44:00Z,00040200,01000000,-000.28,-000.11,0000.15,0000.31,0000.09,0000.16,-000.07,0000.36,0000.05,20.1,26.8,01.6,01.1,0684.8,31.3
2021-04-27T22:45:00Z,00040200,01000000,0000.22,-000.01,-000.12,0000.21,-000.11,0000.15,0000.28,0000.09,0000.38,20.1,26.7,01.5,01.0,0684.8,31.3
2021-04-27T22:46:00Z,00040200,01000000,-000.09,0000.11,0000.19,0000.24,-000.15,-000.05,-000.09,0000.07,0000.02,20.0,26.7,01.6,01.1,0684.8,31.3
2021-04-27T22:47:00Z,00040200,01000000,0000.09,0000.18,-000.25,-000.03,0000.04,-000.09,0000.10,-000.41,-000.16,20.0,26.7,01.6,01.1,0684.8,31.3
2021-04-27T22:48:00Z,00040200,01000000,0000.35,0000.02,-000.33,-000.30,0000.04,-000.19,0000.55,0000.57,0000.18,20.0,26.7,01.7,01.1,0684.8,31.3
2021-04-27T22:49:00Z,00040200,01000000,0000.31,-000.11,-000.16,0000.22,-000.05,-000.22,-000.12,0000.00,0000.17,20.0,26.7,01.7,01.1,0684.8,31.3
2021-04-27T22:50:00Z,00040200,00000000,0000.48,-000.03,-000.12,0000.03,0000.06,0000.01,0000.49,0000.57,0000.24,20.0,26.7,01.8,01.2,0684.8,31.3
2021-04-27T22:51:00Z,00040200,01000000,0000.01,0000.42,-000.12,0000.24,-000.02,-000.02,0000.05,-000.15,-000.25,20.0,26.7,01.8,01.2,0684.9,31.3
2021-04-27T22:52:00Z,00040200,01000000,0000.11,0000.18,0000.06,0000.26,0000.06,-000.04,0000.07,-000.14,0000.36,20.0,26.7,01.8,01.2,0684.8,31.3
2021-04-27T22:53:00Z,00040200,01000000,0000.08,0000.14,-000.22,0000.56,-000.08,0000.05,-000.07,0000.20,0000.03,20.0,26.7,01.8,01.2,0684.9,31.3
2021-04-27T22:54:00Z,00040200,01000000,-000.07,-000.10,0000.05,0000.48,-000.03,0000.07,-000.06,-000.14,-000.07,20.0,26.7,01.8,01.2,0684.9,31.3
2021-04-27T22:55:00Z,00040200,01000000,0000.88,-000.21,-000.21,-000.04,-000.03,-000.26,-000.18,0000.43,-000.40,20.0,26.7,01.7,01.1,0684.8,31.3
2021-04-27T22:56:00Z,00040200,01000000,-000.22,0000.26,-000.03,0000.18,0000.04,-000.02,-000.54,-000.74,-000.05,20.0,26.7,01.7,01.1,0684.9,31.3
2021-04-27T22:57:00Z,00040200,40000000,,,,,,,0001.13,0000.94,0000.69,20.0,26.7,01.5,01.0,0684.8,31.3
2021-04-27T22:58:00Z,00040200,60000000,,,,,,,-001.14,-001.17,-000.70,19.7,26.8,01.7,01.1,0683.9,31.3
2021-04-27T22:59:00Z,00040200,20000000,,,,,,,-000.40,-000.34,-000.53,19.7,26.9,01.5,01.0,0683.9,31.3
